TimeAST,TemperatureF,Dew PointF,Humidity,Sea Level PressureIn,VisibilityMPH,Wind Direction,Wind SpeedMPH,Gust SpeedMPH,PrecipitationIn,Events,Conditions,WindDirDegrees,DateUTC
12:00 AM,77.0,64.4,65,29.95,-9999.0,East,6.9,-,N/A,,Clear,90,2012-11-19 21:00:00
12:30 AM,78.8,66.2,65,29.92,-9999.0,East,8.1,-,N/A,,Clear,90,2012-11-19 21:30:00
1:00 AM,78.8,66.2,65,29.95,-9999.0,East,8.1,-,N/A,,Clear,100,2012-11-19 22:00:00
1:30 AM,78.8,66.2,65,29.92,-9999.0,ESE,6.9,-,N/A,,Clear,110,2012-11-19 22:30:00
2:00 AM,78.8,64.4,61,29.92,-9999.0,East,6.9,-,N/A,,Clear,100,2012-11-19 23:00:00
2:30 AM,78.8,66.2,65,29.92,-9999.0,East,5.8,-,N/A,,Clear,100,2012-11-19 23:30:00
3:00 AM,79,67,58,29.93,6,East,6.9,,,,Scattered Clouds,100,2012-11-20 00:00:00
3:00 AM,78.8,66.2,65,29.92,6.2,East,6.9,-,N/A,,Scattered Clouds,100,2012-11-20 00:00:00
3:30 AM,78.8,68.0,69,29.92,6.2,East,8.1,-,N/A,,Scattered Clouds,100,2012-11-20 00:30:00
4:00 AM,78.8,66.2,65,29.92,6.2,ESE,4.6,-,N/A,,Scattered Clouds,110,2012-11-20 01:00:00
4:30 AM,78.8,66.2,65,29.92,-9999.0,North,4.6,-,N/A,,Clear,10,2012-11-20 01:30:00
5:00 AM,78.8,66.2,65,29.95,-9999.0,NNE,4.6,-,N/A,,Clear,20,2012-11-20 02:00:00
5:30 AM,77.0,64.4,65,29.95,6.2,North,11.5,-,N/A,,Scattered Clouds,360,2012-11-20 02:30:00
6:00 AM,75.2,66.2,73,29.98,6.2,North,16.1,-,N/A,,Scattered Clouds,360,2012-11-20 03:00:00
6:30 AM,75.2,64.4,69,29.98,6.2,North,12.7,-,N/A,,Partly Cloudy,10,2012-11-20 03:30:00
7:00 AM,77.0,64.4,65,30.01,6.2,NNE,11.5,-,N/A,,Partly Cloudy,20,2012-11-20 04:00:00
7:30 AM,78.8,62.6,57,30.01,-9999.0,NNE,12.7,-,N/A,,Clear,20,2012-11-20 04:30:00
8:00 AM,78.8,62.6,57,30.01,6.2,NNE,10.4,-,N/A,,Scattered Clouds,30,2012-11-20 05:00:00
8:30 AM,78.8,62.6,57,30.01,6.2,NNE,11.5,-,N/A,,Scattered Clouds,30,2012-11-20 05:30:00
9:00 AM,79,64,51,30.04,9,NNE,11.5,,,,Scattered Clouds,30,2012-11-20 06:00:00
9:00 AM,78.8,64.4,61,30.04,6.2,NNE,11.5,-,N/A,,Mostly Cloudy,30,2012-11-20 06:00:00
9:30 AM,80.6,64.4,58,30.01,6.2,NNE,11.5,-,N/A,,Scattered Clouds,30,2012-11-20 06:30:00
10:00 AM,80.6,66.2,61,30.01,6.2,NNE,15.0,-,N/A,,Scattered Clouds,20,2012-11-20 07:00:00
10:30 AM,77.0,60.8,57,30.01,6.2,North,13.8,-,N/A,,Partly Cloudy,10,2012-11-20 07:30:00
11:00 AM,78.8,64.4,61,29.98,6.2,NNE,12.7,-,N/A,Rain-Thunderstorm,Light Thunderstorms and Rain,20,2012-11-20 08:00:00
11:30 AM,78.8,64.4,61,29.98,6.2,North,13.8,-,N/A,,Partly Cloudy,360,2012-11-20 08:30:00
12:00 PM,78.8,62.6,57,29.98,6.2,North,10.4,-,N/A,,Partly Cloudy,350,2012-11-20 09:00:00
12:30 PM,80.6,64.4,58,29.95,6.2,North,12.7,-,N/A,,Partly Cloudy,360,2012-11-20 09:30:00
1:00 PM,80.6,62.6,54,29.95,6.2,North,12.7,-,N/A,,Scattered Clouds,360,2012-11-20 10:00:00
1:30 PM,80.6,62.6,54,29.95,6.2,North,15.0,-,N/A,,Scattered Clouds,360,2012-11-20 10:30:00
2:00 PM,80.6,62.6,54,29.95,6.2,North,15.0,-,N/A,,Scattered Clouds,360,2012-11-20 11:00:00
2:30 PM,78.8,62.6,57,29.95,6.2,North,15.0,-,N/A,,Scattered Clouds,350,2012-11-20 11:30:00
3:00 PM,79,63,48,29.95,9,North,16.1,,,,Partly Cloudy,0,2012-11-20 12:00:00
3:00 PM,78.8,62.6,57,29.95,6.2,North,16.1,-,N/A,,Scattered Clouds,360,2012-11-20 12:00:00
3:30 PM,78.8,62.6,57,29.95,6.2,North,16.1,-,N/A,,Scattered Clouds,360,2012-11-20 12:30:00
4:00 PM,77.0,62.6,61,29.95,6.2,North,15.0,-,N/A,,Scattered Clouds,360,2012-11-20 13:00:00
4:30 PM,77.0,64.4,65,29.95,6.2,North,13.8,-,N/A,,Scattered Clouds,360,2012-11-20 13:30:00
5:00 PM,77.0,64.4,65,29.95,6.2,North,13.8,-,N/A,,Scattered Clouds,350,2012-11-20 14:00:00
5:30 PM,77.0,64.4,65,29.95,6.2,North,15.0,-,N/A,,Scattered Clouds,350,2012-11-20 14:30:00
6:00 PM,77.0,64.4,65,29.98,6.2,North,13.8,-,N/A,,Scattered Clouds,350,2012-11-20 15:00:00
6:30 PM,75.2,64.4,69,29.98,6.2,NNW,13.8,-,N/A,,Scattered Clouds,340,2012-11-20 15:30:00
7:00 PM,75.2,62.6,65,30.01,-9999.0,NNW,12.7,-,N/A,,Clear,330,2012-11-20 16:00:00
7:30 PM,73.4,62.6,69,30.01,-9999.0,NNW,10.4,-,N/A,,Clear,330,2012-11-20 16:30:00
8:00 PM,73.4,62.6,69,30.01,-9999.0,NNW,11.5,-,N/A,,Clear,330,2012-11-20 17:00:00
8:30 PM,73.4,60.8,65,30.01,-9999.0,NW,10.4,-,N/A,,Clear,320,2012-11-20 17:30:00
9:00 PM,73.4,59.0,61,30.01,-9999.0,NW,10.4,-,N/A,,Clear,320,2012-11-20 18:00:00
9:30 PM,73.4,59.0,61,30.01,-9999.0,NNW,9.2,-,N/A,,Clear,330,2012-11-20 18:30:00
10:00 PM,73.4,59.0,61,30.01,6.2,NW,9.2,-,N/A,,Partly Cloudy,320,2012-11-20 19:00:00
10:30 PM,73.4,60.8,65,30.01,6.2,NW,10.4,-,N/A,,Partly Cloudy,320,2012-11-20 19:30:00
11:00 PM,73.4,60.8,65,30.01,5.0,NW,9.2,-,N/A,,Unknown,320,2012-11-20 20:00:00
11:30 PM,71.6,60.8,69,30.01,4.3,NW,9.2,-,N/A,,Unknown,310,2012-11-20 20:30:00